logo
App data

Legend (1994)

Legend is a Beat'em up game that resembles games like Final Fight, or Streets of Rage. The game features a medieval setting.
Store | Hub | SteamDB | Site
Developer: Arcade Zone Publisher: Piko Interactive LLC
Genre: Action
Languages: English
Tags: Beat 'em up (16), Action (15), Fighting (12), Retro (5), Classic (5), 2D (5)
Category: Single-player, Co-op, Steam Trading Cards, Partial Controller Support
Release date: Apr 1, 1994
Price: $4.99
Old userscore: 64% Owners: 20,000 .. 50,000
Followers: 323
Playtime total: 00:04 (average) 00:04 (median)

Steam Spy is still in beta, so expect major bugs.

Owners data:

Access restricted.

This feature is only available to users with special access rights. Sorry.

If you want to proceed, you need to register or log in first and then back Steam Spy on Patreon. Look for Indie or Pro pledge.

Don't forget to use the same email as on Steam Spy!

If you've recently backed Steam Spy on Patreon, please note, that it might take around 15 minutes for your access rights to sync. In most cases you'll need to re-login on Steam Spy too.

Audience in 2 weeks:

Access restricted.

This feature is only available to users with special access rights. Sorry.

If you want to proceed, you need to register or log in first and then back Steam Spy on Patreon. Look for Indie or Pro pledge.

Don't forget to use the same email as on Steam Spy!

If you've recently backed Steam Spy on Patreon, please note, that it might take around 15 minutes for your access rights to sync. In most cases you'll need to re-login on Steam Spy too.

Peak daily concurrent players:

CCU data courtesy of SteamDB. Used with permission.

Hourly concurrent players:

Daily Twitch stats:

Hourly Twitch stats:

Followers over time

Access restricted.

This feature is only available to users with special access rights. Sorry.

If you want to proceed, you need to register or log in first and then back Steam Spy on Patreon. Look for Indie or Pro pledge.

Don't forget to use the same email as on Steam Spy!

If you've recently backed Steam Spy on Patreon, please note, that it might take around 15 minutes for your access rights to sync. In most cases you'll need to re-login on Steam Spy too.

Views for top 50 videos on YouTube for this game:

Games similar to this one:

# Game Release date
Price
Score rank
(Userscore / Metascore)
Owners
Players
Playtime (Median)
1 Master Reboot Oct 29, 2013 $12.99N/A (N/A/59%)50,000 .. 100,0000%00:00 (00:00)
2 Sid Meier’s Ace Patrol Aug 27, 2013 $4.99N/A (N/A)200,000 .. 500,0000%00:00 (00:00)
3 Anomaly Warzone Earth Mobile Campaign Nov 6, 2013 $4.99N/A (N/A)100,000 .. 200,0000%00:00 (00:00)
4 VelocityUltra Dec 12, 2013 $9.99N/A (N/A)20,000 .. 50,0000%00:00 (00:00)
5 YAIBA: NINJA GAIDEN Z Mar 21, 2014 $29.99N/A (N/A/49%)20,000 .. 50,0000%00:00 (00:00)
6 ENSLAVED: Odyssey to the West Premium Edition Oct 24, 2013 $19.99N/A (N/A/70%)200,000 .. 500,0000%00:00 (00:00)
7 Wanderlust Adventures Aug 10, 2015 $9.99N/A (N/A)50,000 .. 100,0000%00:00 (00:00)
8 Flashback Oct 1, 2013 $9.99N/A (N/A)20,000 .. 50,0000%00:00 (00:00)
9 Ittle Dew Jul 23, 2013 $9.99N/A (N/A/67%)100,000 .. 200,0000%00:00 (00:00)
10 Livelock Aug 30, 2016 $9.99N/A (N/A/73%)20,000 .. 50,0000%00:00 (00:00)
11 CastleStorm Jul 29, 2013 $9.99N/A (N/A/73%)100,000 .. 200,0000%00:00 (00:00)
12 Dark Matter Oct 17, 2013 $9.99N/A (N/A)200,000 .. 500,0000%00:00 (00:00)
13 Guncraft Aug 9, 2013 $14.99N/A (N/A/73%)50,000 .. 100,0000%00:00 (00:00)
14 Chainsaw Warrior Oct 7, 2013 $4.99N/A (N/A)20,000 .. 50,0000%00:00 (00:00)
15 In Verbis Virtus Apr 3, 2015 $19.99N/A (N/A)100,000 .. 200,0000%00:00 (00:00)
16 Stick it to The Man! Dec 13, 2013 $7.99N/A (N/A/83%)20,000 .. 50,0000%00:00 (00:00)
17 Divinity: Dragon Commander Aug 6, 2013 $39.99N/A (N/A)200,000 .. 500,0000%00:00 (00:00)
18 Magic Quest May 6, 2016 $1.99N/A (N/A)50,000 .. 100,0000%00:00 (00:00)
19 Story Of the Survivor Feb 17, 2016 $4.99N/A (N/A)50,000 .. 100,0000%00:00 (00:00)
20 Rocketbirds 2 Evolution Jan 26, 2017 $9.99N/A (N/A)20,000 .. 50,0000%00:00 (00:00)
21 Age of Gladiators Feb 25, 2016 $9.99N/A (N/A)0 .. 20,0000%00:00 (00:00)
22 Purgatory Jun 22, 2016 $0.99N/A (N/A)50,000 .. 100,0000%00:00 (00:00)
23 ALONE IN SPACE Feb 27, 2016 $9.99N/A (N/A)20,000 .. 50,0000%00:00 (00:00)
24 Zombie City Defense 2 Aug 19, 2016 $9.99N/A (N/A)0 .. 20,0000%00:00 (00:00)
25 Onechanbara Z2: Chaos Jun 2, 2016 $39.99N/A (N/A)0 .. 20,0000%00:00 (00:00)
26 Super Helmets on Fire DX Ultra Edition Plus Alpha Feb 15, 2016 FreeN/A (N/A)0 .. 20,0000%00:00 (00:00)
27 GIBZ Apr 7, 2017 $7.99N/A (N/A)50,000 .. 100,0000%00:00 (00:00)
28 Phoning Home Feb 7, 2017 $9.99N/A (N/A/61%)50,000 .. 100,0000%00:00 (00:00)
29 Assault on Arnhem Mar 11, 2016 $9.99N/A (N/A)20,000 .. 50,0000%00:00 (00:00)
30 Marvel: Ultimate Alliance 2 Jul 26, 2016 N/AN/A (N/A)20,000 .. 50,0000%00:00 (00:00)
31 Ace of Seafood Apr 8, 2016 $11.99N/A (N/A)50,000 .. 100,0000%00:00 (00:00)
32 A Blind Legend Apr 7, 2016 $6.99N/A (N/A)20,000 .. 50,0000%00:00 (00:00)
33 Mad Bullets Jun 10, 2016 $2.99N/A (N/A)0 .. 20,0000%00:00 (00:00)
34 Control Craft 2 Feb 15, 2016 $0.49N/A (N/A)20,000 .. 50,0000%00:00 (00:00)
35 Deadnaut Nov 27, 2014 $9.99N/A (N/A)50,000 .. 100,0000%00:00 (00:00)
36 Lux Delux May 1, 2015 $3.99N/A (N/A)50,000 .. 100,0000%00:00 (00:00)
37 Flywrench Aug 24, 2015 $6.99N/A (N/A)0 .. 20,0000%00:00 (00:00)
38 Tiamat X May 29, 2015 $1.99N/A (N/A)50,000 .. 100,0000%00:00 (00:00)
39 Star Hammer: The Vanguard Prophecy Jun 4, 2015 $19.99N/A (N/A/69%)0 .. 20,0000%00:00 (00:00)
40 David. Mar 14, 2014 $1.99N/A (N/A)100,000 .. 200,0000%00:00 (00:00)
41 Urja Jan 9, 2015 $9.99N/A (N/A)20,000 .. 50,0000%00:00 (00:00)
42 PixelJunk Shooter Ultimate Oct 21, 2015 $9.99N/A (N/A)50,000 .. 100,0000%00:00 (00:00)
43 Headlander Jul 25, 2016 $19.99N/A (N/A/74%)50,000 .. 100,0000%00:00 (00:00)
44 Kaiju-A-GoGo Apr 23, 2015 $9.99N/A (N/A)20,000 .. 50,0000%00:00 (00:00)
45 Tallowmere Mar 3, 2015 $3.99N/A (N/A)0 .. 20,0000%00:00 (00:00)
46 Fortified Feb 3, 2016 $14.99N/A (N/A)500,000 .. 1,000,0000.78%02:37 (00:52)
47 Armed with Wings: Rearmed Jun 1, 2017 $9.99N/A (N/A)20,000 .. 50,0000%00:00 (00:00)
48 ManaCollect Apr 17, 2015 $6.99N/A (N/A)0 .. 20,0000%00:00 (00:00)
49 Colonial Conquest Jul 28, 2015 $9.99N/A (N/A)0 .. 20,0000%00:00 (00:00)
50 Bloodsports.TV Mar 30, 2015 $9.99N/A (N/A/69%)100,000 .. 200,0000%00:00 (00:00)
51 Super Cyborg Jul 8, 2015 $4.99N/A (N/A)20,000 .. 50,0000%00:00 (00:00)
52 Ku: Shroud of the Morrigan Mar 17, 2014 $4.99N/A (N/A)20,000 .. 50,0000%00:00 (00:00)
53 SPACECOM Sep 17, 2014 $9.99N/A (N/A/68%)50,000 .. 100,0000%00:00 (00:00)
54 Shadow Blade: Reload Aug 10, 2015 $9.99N/A (N/A/70%)20,000 .. 50,0000%00:00 (00:00)
55 Wyv and Keep: The Temple of the Lost Idol Aug 8, 2014 $14.99N/A (N/A)0 .. 20,0000%00:00 (00:00)
56 The Last Federation Apr 18, 2014 $19.99N/A (N/A/72%)50,000 .. 100,0000%00:00 (00:00)
57 Guns n Zombies Oct 30, 2014 $7.99N/A (N/A)100,000 .. 200,0000%00:00 (00:00)
58 Dusty Revenge:Co-Op Edition Feb 17, 2014 $14.99N/A (N/A)50,000 .. 100,0000%00:00 (00:00)
59 Major Mayhem Feb 24, 2014 $4.99N/A (N/A)20,000 .. 50,0000%00:00 (00:00)
60 McDROID Sep 5, 2014 $8.99N/A (N/A)0 .. 20,0000%00:00 (00:00)
61 Deadly 30 Jan 8, 2014 $4.99N/A (N/A)100,000 .. 200,0000%00:00 (00:00)
62 Hot Tin Roof: The Cat That Wore A Fedora Feb 20, 2015 $14.99N/A (N/A/66%)50,000 .. 100,0000%00:00 (00:00)
63 Gun Metal Sep 23, 2003 $2.99N/A (N/A)200,000 .. 500,0000%00:00 (00:00)
64 PixelJunk Shooter Nov 11, 2013 $8.99N/A (N/A/73%)100,000 .. 200,0000%00:00 (00:00)
65 Meltdown Jun 5, 2014 $6.99N/A (N/A)100,000 .. 200,0000%00:00 (00:00)
66 Bedlam Oct 13, 2015 N/AN/A (N/A/54%)100,000 .. 200,0000%00:00 (00:00)
67 Time Rifters Oct 21, 2014 $3.99N/A (N/A)20,000 .. 50,0000%00:00 (00:00)
68 Unearthed: Trail of Ibn Battuta - Episode 1 - Gold Edition Jan 3, 2014 $4.99N/A (N/A)50,000 .. 100,0000%00:00 (00:00)
69 Star Wolves 3: Civil War Mar 2, 2010 $4.99N/A (N/A)100,000 .. 200,0000%00:00 (00:00)
70 Defence to death May 11, 2017 $5.99N/A (N/A)20,000 .. 50,0000%00:00 (00:00)
71 Delta Force 2 Oct 31, 1999 $4.99N/A (N/A)50,000 .. 100,0000%00:00 (00:00)
72 Sorcerer King: Rivals Sep 22, 2016 $19.99N/A (N/A)50,000 .. 100,0000%00:00 (00:00)
73 Theatre of War 2: Africa 1943 Jul 9, 2010 $4.99N/A (N/A/63%)50,000 .. 100,0000%00:00 (00:00)
74 Sudden Strike 2 Gold Aug 30, 2002 $5.99N/A (N/A)50,000 .. 100,0000%00:00 (00:00)
75 Disciples III - Renaissance Steam Special Edition Jul 16, 2010 $14.99N/A (N/A/56%)200,000 .. 500,0000%00:00 (00:00)
76 Bulletstorm: Full Clip Edition Apr 7, 2017 $39.99N/A (N/A/76%)200,000 .. 500,0000%00:00 (00:00)
77 Making History II: The War of the World Aug 27, 2010 $14.99N/A (N/A/38%)50,000 .. 100,0000%00:00 (00:00)
78 Chaser Jul 16, 2010 $4.99N/A (N/A/66%)50,000 .. 100,0000%00:00 (00:00)
79 Battle Time Sep 29, 2016 $0.99N/A (N/A)50,000 .. 100,0000%00:00 (00:00)
80 King Arthur - The Role-playing Wargame Nov 24, 2009 $4.99N/A (N/A)200,000 .. 500,0000%00:00 (00:00)
81 Rush for Berlin Gold Oct 29, 2009 $2.49N/A (N/A/76%)20,000 .. 50,0000%00:00 (00:00)
82 BitMaster Oct 12, 2016 $2.99N/A (N/A)200,000 .. 500,0000%00:00 (00:00)
83 Elven Legacy Apr 7, 2009 $4.99N/A (N/A/71%)50,000 .. 100,0000%00:00 (00:00)
84 Slash or Die Jun 3, 2016 $5.99N/A (N/A)50,000 .. 100,0000%00:00 (00:00)
85 The Kings' Crusade Oct 8, 2010 $9.99N/A (N/A/71%)20,000 .. 50,0000%00:00 (00:00)
86 Toadled Sep 22, 2016 $0.99N/A (N/A)50,000 .. 100,0000%00:00 (00:00)
87 Supreme Ruler 2020 Gold Jul 9, 2009 $9.99N/A (N/A/65%)20,000 .. 50,0000%00:00 (00:00)
88 Smithy Jun 3, 2016 $0.99N/A (N/A)20,000 .. 50,0000%00:00 (00:00)
89 Sword of the Stars II: Enhanced Edition Nov 30, 2012 $19.99N/A (N/A/65%)200,000 .. 500,0000%00:00 (00:00)
90 Aegis Oct 6, 2016 $2.99N/A (N/A)0 .. 20,0000%00:00 (00:00)
91 Majesty Gold HD Sep 4, 2009 $9.99N/A (N/A)100,000 .. 200,0000%00:00 (00:00)
92 Syrian Warfare Feb 21, 2017 $3.91N/A (N/A)200,000 .. 500,0000%00:00 (00:00)
93 The Haunted: Hells Reach Oct 24, 2011 $8.99N/A (N/A/51%)50,000 .. 100,0000%00:00 (00:00)
94 Mysterium: A Psychic Clue Game Jan 12, 2017 $6.99N/A (N/A)50,000 .. 100,00011.11%01:23 (00:55)
95 Caster Mar 19, 2009 $1.99N/A (N/A)200,000 .. 500,0000%00:00 (00:00)
96 Mr. Shifty Apr 13, 2017 $14.99N/A (N/A)100,000 .. 200,0000%00:00 (00:00)
97 Dead Rising 2: Off the Record Oct 11, 2011 $19.99N/A (N/A/66%)500,000 .. 1,000,0000%00:00 (00:00)
98 Civil War: Battle of Petersburg Feb 8, 2017 $0.99N/A (N/A)20,000 .. 50,0000%00:00 (00:00)
99 LEGO Indiana Jones 2: The Adventure Continues Feb 18, 2010 $19.99N/A (N/A/66%)50,000 .. 100,0000%00:00 (00:00)
100 Quarantine Feb 9, 2017 $9.99N/A (N/A)20,000 .. 50,0000%00:00 (00:00)
101 Fort Meow Jun 25, 2015 $7.99N/A (N/A)0 .. 20,0000%00:00 (00:00)
102 Assassin’s Creed Chronicles: India Jan 12, 2016 $2.99N/A (N/A)50,000 .. 100,0000%00:00 (00:00)
103 Spirit of War Mar 12, 2015 $9.99N/A (N/A)20,000 .. 50,0000%00:00 (00:00)
104 Nightside Apr 2, 2015 $4.99N/A (N/A)20,000 .. 50,0000%00:00 (00:00)
105 King of Dragon Pass Jul 28, 2015 $11.99N/A (N/A)0 .. 20,0000%00:00 (00:00)
106 Weather Lord: The Successor's Path Apr 8, 2015 $4.99N/A (N/A)0 .. 20,0000%00:00 (00:00)
107 Urban Empire Jan 20, 2017 $29.99N/A (N/A/62%)100,000 .. 200,0000%00:00 (00:00)
108 Rise & Shine Jan 13, 2017 $14.99N/A (N/A)50,000 .. 100,0000%00:00 (00:00)
109 Trigger Runners Mar 3, 2016 $1.99N/A (N/A)0 .. 20,0000%00:00 (00:00)
110 The Asskickers-Steam Edition Feb 6, 2015 $9.99N/A (N/A)0 .. 20,0000%00:00 (00:00)
111 Dungeon Warfare Nov 4, 2015 $9.99N/A (N/A)50,000 .. 100,0000%00:00 (00:00)
112 Burstfire Sep 24, 2015 N/AN/A (N/A)50,000 .. 100,0000%00:00 (00:00)
113 Commander Cool 2 Dec 17, 2015 $2.99N/A (N/A)50,000 .. 100,0000%00:00 (00:00)
114 No Pineapple Left Behind Feb 18, 2016 $6.99N/A (N/A/59%)0 .. 20,0000%00:00 (00:00)
115 Interloper May 21, 2015 FreeN/A (N/A/77%)20,000 .. 50,0000%00:00 (00:00)
116 Planet of the Eyes Aug 24, 2015 $9.99N/A (N/A/66%)20,000 .. 50,0000%00:00 (00:00)
117 Kick Ass Commandos Nov 17, 2016 $9.99N/A (N/A)0 .. 20,0000%00:00 (00:00)
118 Enemy Mind Jun 6, 2014 $9.99N/A (N/A)100,000 .. 200,0000%00:00 (00:00)
119 Making History: The Great War Jan 29, 2015 $29.99N/A (N/A)20,000 .. 50,0000%00:00 (00:00)
120 Avoid - Sensory Overload Apr 8, 2014 $4.99N/A (N/A)20,000 .. 50,0000%00:00 (00:00)
121 Battlepillars Gold Edition Apr 28, 2014 $4.99N/A (N/A)20,000 .. 50,0000%00:00 (00:00)
122 Zoo Empire Aug 1, 2004 $1.74N/A (N/A/59%)0 .. 20,0000%00:00 (00:00)
123 Ubersoldier II Jul 22, 2008 $9.99N/A (N/A/62%)100,000 .. 200,0000%00:00 (00:00)
124 Z Steel Soldiers Aug 1, 2014 $12.99N/A (N/A)50,000 .. 100,0000%00:00 (00:00)
125 Disciples Sacred Lands Gold Oct 4, 1999 $1.59N/A (N/A)50,000 .. 100,0000%00:00 (00:00)
126 Z Jul 4, 2014 $6.99N/A (N/A)100,000 .. 200,0000%00:00 (00:00)
127 Woolfe - The Red Hood Diaries Mar 17, 2015 $9.99N/A (N/A/55%)100,000 .. 200,0000%00:00 (00:00)
128 Albedo: Eyes from Outer Space Apr 10, 2015 $14.99N/A (N/A/66%)20,000 .. 50,0000%00:00 (00:00)
129 Super Chibi Knight Jun 24, 2015 $4.99N/A (N/A)20,000 .. 50,0000%00:00 (00:00)
130 RIVE: Wreck, Hack, Die, Retry! Sep 13, 2016 $14.99N/A (N/A)100,000 .. 200,0000%00:00 (00:00)
131 Battleplan: American Civil War Jul 4, 2014 $9.99N/A (N/A/66%)100,000 .. 200,0000%00:00 (00:00)
132 Spider: Rite of the Shrouded Moon Aug 6, 2015 $9.99N/A (N/A)20,000 .. 50,0000%00:00 (00:00)
133 The Entente Gold Aug 11, 2003 $1.99N/A (N/A)50,000 .. 100,0000%00:00 (00:00)
134 Interplanetary May 12, 2015 N/AN/A (N/A)100,000 .. 200,0000%00:00 (00:00)
135 Men of War: Vietnam Sep 8, 2011 $7.99N/A (N/A/68%)200,000 .. 500,0000%00:00 (00:00)
136 Dungeons Feb 10, 2011 $9.99N/A (N/A/65%)200,000 .. 500,0000%00:00 (00:00)
137 Carrier Command: Gaea Mission Sep 28, 2012 $32.99N/A (N/A/60%)200,000 .. 500,0000%00:00 (00:00)
138 A Game of Thrones - Genesis Sep 28, 2011 $9.99N/A (N/A)100,000 .. 200,0000%00:00 (00:00)
139 Star Ruler Sep 20, 2010 $7.99N/A (N/A)100,000 .. 200,0000%00:00 (00:00)
140 Power of Defense Aug 4, 2010 $9.99N/A (N/A)0 .. 20,0000%00:00 (00:00)
141 Armada 2526 Apr 8, 2011 $14.99N/A (N/A/66%)0 .. 20,0000%00:00 (00:00)
142 Age of Wonders Oct 2010 $5.99N/A (N/A)100,000 .. 200,0000%00:00 (00:00)
143 RISK: Factions N/AN/A (N/A/77%)0 .. 20,0000%00:00 (00:00)
144 Age of Wonders Shadow Magic Oct 2010 $9.99N/A (N/A/82%)100,000 .. 200,0000%00:00 (00:00)
145 Greed Corp Dec 10, 2010 $9.99N/A (N/A/76%)200,000 .. 500,0000%00:00 (00:00)
146 Monday Night Combat Jan 24, 2011 $4.99N/A (N/A/82%)200,000 .. 500,0000%00:00 (00:00)
147 Commander: Conquest of the Americas Jul 30, 2010 $9.99N/A (N/A/68%)50,000 .. 100,0000%00:00 (00:00)
148 Swords and Soldiers HD Dec 2, 2010 $9.99N/A (N/A)200,000 .. 500,0000%00:00 (00:00)
149 Atom Zombie Smasher Mar 14, 2011 $9.99N/A (N/A/75%)200,000 .. 500,0000%00:00 (00:00)
150 Delve Deeper Sep 24, 2010 $4.99N/A (N/A)50,000 .. 100,0000%00:00 (00:00)
151 Patrician IV Sep 17, 2010 $14.99N/A (N/A/66%)100,000 .. 200,0000%00:00 (00:00)
152 Pongo May 14, 2015 $0.99N/A (N/A)50,000 .. 100,0000%00:00 (00:00)
153 Rack N Ruin Sep 1, 2015 $9.99N/A (N/A)0 .. 20,0000%00:00 (00:00)
154 Blacksea Odyssey Jun 1, 2016 $9.99N/A (N/A/74%)20,000 .. 50,0000%00:00 (00:00)
155 Valley Aug 24, 2016 $14.99N/A (N/A)100,000 .. 200,0000%00:00 (00:00)
156 Templar Battleforce Sep 21, 2015 $9.99N/A (N/A)0 .. 20,0000%00:00 (00:00)
157 Incandescent Jun 30, 2015 $0.99N/A (N/A)20,000 .. 50,0000%00:00 (00:00)
158 Jim Power -The Lost Dimension Dec 10, 1993 $4.99N/A (N/A)0 .. 20,0000%00:00 (00:00)
159 The Living Dungeon Nov 2, 2015 $9.99N/A (N/A)0 .. 20,0000%00:00 (00:00)
160 Spooky Cats Jun 4, 2015 $2.99N/A (N/A)20,000 .. 50,0000%00:00 (00:00)
161 Redemption: Saints And Sinners Nov 18, 2016 $0.49N/A (N/A)20,000 .. 50,0000%00:00 (00:00)
162 Defend The Highlands Nov 6, 2015 $9.99N/A (N/A)50,000 .. 100,0000%00:00 (00:00)
163 TASTEE: Lethal Tactics May 10, 2016 $14.99N/A (N/A)0 .. 20,0000%00:00 (00:00)
164 Island Defense Jul 23, 2015 $1.99N/A (N/A)0 .. 20,0000%00:00 (00:00)
165 Below Kryll Sep 7, 2015 $4.99N/A (N/A)0 .. 20,0000%00:00 (00:00)
166 Biodrone Battle Jul 16, 2015 $1.99N/A (N/A)50,000 .. 100,0000%00:00 (00:00)
167 Disposable Heroes Oct 1, 2015 $1.99N/A (N/A)20,000 .. 50,0000%00:00 (00:00)
168 Tcheco in the Castle of Lucio Jun 22, 2015 $0.49N/A (N/A)50,000 .. 100,0000%00:00 (00:00)
169 Freight Tycoon Inc. Aug 15, 2007 $4.99N/A (N/A)20,000 .. 50,0000%00:00 (00:00)
170 Evopollution Apr 23, 2014 $4.99N/A (N/A)0 .. 20,0000%00:00 (00:00)
171 Perimeter May 21, 2004 $3.99N/A (N/A/77%)20,000 .. 50,0000%00:00 (00:00)
172 Overruled! Sep 15, 2015 $12.99N/A (N/A)20,000 .. 50,0000%00:00 (00:00)
173 Marauder Sep 10, 2009 $9.99N/A (N/A)50,000 .. 100,0000%00:00 (00:00)
174 Space Colony: Steam Edition Apr 30, 2015 $14.99N/A (N/A/74%)20,000 .. 50,0000%00:00 (00:00)
175 Collapse Sep 25, 2008 $19.99N/A (N/A)50,000 .. 100,0000%00:00 (00:00)
176 Hard Truck Apocalypse: Arcade / Ex Machina: Arcade May 24, 2007 $4.99N/A (N/A)0 .. 20,0000%00:00 (00:00)
177 The Fall May 30, 2014 $9.99N/A (N/A/76%)200,000 .. 500,0000%00:00 (00:00)
178 Disney Planes Aug 6, 2013 $19.99N/A (N/A)0 .. 20,0000%00:00 (00:00)
179 Royal Defense Nov 6, 2014 $0.49N/A (N/A)100,000 .. 200,0000%00:00 (00:00)
180 8-Bit Commando Jul 27, 2011 $3.99N/A (N/A)50,000 .. 100,0000%00:00 (00:00)
181 Elliot Quest Nov 10, 2014 $9.99N/A (N/A)20,000 .. 50,0000%00:00 (00:00)
182 Rex Rocket Aug 5, 2014 $4.99N/A (N/A)20,000 .. 50,0000%00:00 (00:00)
183 Merchants of Kaidan Nov 10, 2014 $1.49N/A (N/A)100,000 .. 200,0000%00:00 (00:00)
184 Perimeter: Emperor's Testament Aug 29, 2006 $3.99N/A (N/A/72%)20,000 .. 50,0000%00:00 (00:00)
185 Olympia Rising Jul 23, 2015 $4.99N/A (N/A)0 .. 20,0000%00:00 (00:00)
186 Check vs Mate Aug 16, 2012 $19.99N/A (N/A/69%)20,000 .. 50,0000%00:00 (00:00)
187 Battle Chess: Game of Kings Dec 11, 2015 $29.99N/A (N/A)20,000 .. 50,0000%00:00 (00:00)
188 Conflict Desert Storm May 28, 2012 $6.99N/A (N/A/56%)100,000 .. 200,0000%00:00 (00:00)
189 A Game of Dwarves Oct 23, 2012 $9.99N/A (N/A/60%)100,000 .. 200,0000%00:00 (00:00)
190 Call of Duty: Black Ops - Mac Edition Sep 27, 2012 N/AN/A (N/A)50,000 .. 100,0000%00:00 (00:00)
191 Dungeons - The Dark Lord Sep 27, 2011 $19.99N/A (N/A/72%)100,000 .. 200,0000%00:00 (00:00)
192 Sengoku Sep 15, 2011 $9.99N/A (N/A/70%)100,000 .. 200,0000%00:00 (00:00)
193 Disciples III - Resurrection Oct 11, 2011 $14.99N/A (N/A/63%)100,000 .. 200,0000%00:00 (00:00)
194 A.R.E.S.: Extinction Agenda Jan 19, 2011 $4.99N/A (N/A/68%)50,000 .. 100,0000%00:00 (00:00)
195 Impire Feb 14, 2013 $19.99N/A (N/A/45%)100,000 .. 200,0000%00:00 (00:00)
196 Kohan II: Kings of War Aug 24, 2011 $9.99N/A (N/A/81%)20,000 .. 50,0000%00:00 (00:00)
197 Men of War: Condemned Heroes Apr 12, 2012 $7.99N/A (N/A/57%)20,000 .. 50,0000%00:00 (00:00)
198 Demolition Inc. Sep 19, 2011 $5.99N/A (N/A)50,000 .. 100,0000%00:00 (00:00)
199 Warlock 2: The Exiled Apr 10, 2014 $19.99N/A (N/A/73%)100,000 .. 200,0000%00:00 (00:00)
200 Crysis 2 - Maximum Edition Mar 22, 2011 $29.99N/A (N/A)100,000 .. 200,0000%00:00 (00:00)
201 Stellar Impact Apr 12, 2012 $9.99N/A (N/A/74%)50,000 .. 100,0000%00:00 (00:00)
202 Gatling Gears Aug 30, 2011 $9.99N/A (N/A)20,000 .. 50,0000%00:00 (00:00)
203 Pharaonic Apr 28, 2016 $14.99N/A (N/A)50,000 .. 100,0000%00:00 (00:00)
204 Little Big Adventure 2 Oct 20, 2015 $3.99N/A (N/A)0 .. 20,0000%00:00 (00:00)
205 Vendetta - Curse of Raven's Cry Nov 20, 2015 $29.99N/A (N/A)200,000 .. 500,00011.11%00:44 (00:22)
206 Ace of Protectors Jun 27, 2016 $1.99N/A (N/A)20,000 .. 50,0000%00:00 (00:00)
207 Rise: Battle Lines Nov 17, 2015 N/AN/A (N/A)0 .. 20,0000%00:00 (00:00)
208 Prospekt Feb 18, 2016 $5.99N/A (N/A/43%)50,000 .. 100,0000%00:00 (00:00)
209 Sol 0: Mars Colonization Jan 15, 2016 $3.99N/A (N/A)20,000 .. 50,0000%00:00 (00:00)
210 Lost in Paradise Aug 20, 2015 $2.99N/A (N/A)20,000 .. 50,0000%00:00 (00:00)
211 TRON RUN/r Feb 16, 2016 $19.99N/A (N/A)20,000 .. 50,0000%00:00 (00:00)
212 Kidnapped Aug 4, 2015 $2.99N/A (N/A)100,000 .. 200,0000%00:00 (00:00)
213 Toy Odyssey: The Lost and Found Sep 20, 2016 $14.99N/A (N/A/66%)20,000 .. 50,0000%00:00 (00:00)
214 E.T. Armies Mar 3, 2016 $14.99N/A (N/A/54%)50,000 .. 100,0000%00:00 (00:00)
215 WARSHIFT Oct 12, 2016 $9.99N/A (N/A)20,000 .. 50,0000%00:00 (00:00)
216 Cross of the Dutchman Sep 10, 2015 $8.99N/A (N/A/59%)20,000 .. 50,0000%00:00 (00:00)
217 Square Brawl Oct 22, 2015 $4.99N/A (N/A)0 .. 20,0000%00:00 (00:00)
218 Zombie Party Jun 10, 2016 $9.99N/A (N/A)50,000 .. 100,0000%00:00 (00:00)
219 Miracle Fly Oct 26, 2015 $7.99N/A (N/A)0 .. 20,0000%00:00 (00:00)
220 Nux Dec 26, 2006 $6.99N/A (N/A)100,000 .. 200,0000%00:00 (00:00)
221 Battlezone Gold Edition May 11, 2017 $34.99N/A (N/A)0 .. 20,0000%00:00 (00:00)
222 Gold Rush! Classic Dec 23, 1988 $2.99N/A (N/A)100,000 .. 200,0000%00:00 (00:00)
223 Foresight Nov 28, 2014 $4.99N/A (N/A)0 .. 20,0000%00:00 (00:00)
224 The Nightmare Cooperative Jul 16, 2014 $4.99N/A (N/A)20,000 .. 50,0000%00:00 (00:00)
225 Stonerid Dec 18, 2013 $4.99N/A (N/A)20,000 .. 50,0000%00:00 (00:00)
226 The Way May 20, 2016 $14.99N/A (N/A/67%)100,000 .. 200,0000%00:00 (00:00)
227 Orbital Gear Aug 7, 2014 $9.99N/A (N/A/59%)200,000 .. 500,0000%00:00 (00:00)
228 The Stalin Subway Oct 5, 2006 $3.99N/A (N/A)100,000 .. 200,0000%00:00 (00:00)
229 Psichodelya Aug 8, 2014 N/AN/A (N/A)50,000 .. 100,0000%00:00 (00:00)
230 Super Trench Attack! Jul 24, 2014 $4.99N/A (N/A)50,000 .. 100,0000%00:00 (00:00)
231 Momodora III Jul 1, 2014 $1.99N/A (N/A)50,000 .. 100,0000%00:00 (00:00)
232 Spirits of Xanadu Mar 26, 2015 $4.99N/A (N/A)20,000 .. 50,0000%00:00 (00:00)
233 Wildlife Park 2 - Crazy Zoo Mar 30, 2007 $3.99N/A (N/A)20,000 .. 50,0000%00:00 (00:00)
234 Warhammer 40,000: Armageddon Nov 26, 2014 $39.99N/A (N/A/68%)50,000 .. 100,0000%00:00 (00:00)
235 Will Fight for Food: Super Actual Sellout: Game of the Hour Apr 22, 2015 $4.99N/A (N/A)0 .. 20,0000%00:00 (00:00)
236 Ys VI: The Ark of Napishtim Apr 28, 2015 $19.99N/A (N/A/76%)50,000 .. 100,0000%00:00 (00:00)
237 Skyward Collapse May 23, 2013 $4.99N/A (N/A/64%)0 .. 20,0000%00:00 (00:00)
238 Sang-Froid - Tales of Werewolves Apr 5, 2013 FreeN/A (N/A/79%)200,000 .. 500,0000%00:00 (00:00)
239 7 Grand Steps: What Ancients Begat Jun 7, 2013 $19.99N/A (N/A)20,000 .. 50,0000%00:00 (00:00)
240 Scourge: Outbreak Apr 2, 2014 $5.99N/A (N/A)100,000 .. 200,00020%01:33 (00:31)
241 Bleed Jul 3, 2013 $4.99N/A (N/A)100,000 .. 200,0000%00:00 (00:00)
242 March of the Eagles Feb 18, 2013 $19.99N/A (N/A/71%)50,000 .. 100,0000%00:00 (00:00)
243 Painkiller Hell & Damnation Oct 31, 2012 $19.99N/A (N/A/64%)200,000 .. 500,0003.57%01:05 (00:21)
244 Skulls of the Shogun Jul 29, 2013 $9.99N/A (N/A/72%)100,000 .. 200,0000%00:00 (00:00)
245 Zeno Clash 2 Apr 30, 2013 $14.99N/A (N/A)200,000 .. 500,0000%00:00 (00:00)
246 Anodyne Mar 22, 2013 $9.99N/A (N/A/75%)200,000 .. 500,0000%00:00 (00:00)
247 Jagged Alliance 2 - Wildfire Nov 16, 2012 $6.99N/A (N/A)200,000 .. 500,0000%00:00 (00:00)
248 Eador: Genesis Aug 7, 2009 $5.99N/A (N/A)50,000 .. 100,0000%00:00 (00:00)
249 Eufloria HD Oct 14, 2014 $14.99N/A (N/A)100,000 .. 200,0000%00:00 (00:00)
250 Anomaly 2 May 15, 2013 $14.99N/A (N/A/77%)200,000 .. 500,0000%00:00 (00:00)
251 Arma Tactics Oct 1, 2013 $8.99N/A (N/A/47%)200,000 .. 500,0000%00:00 (00:00)
252 Fist Puncher Jun 21, 2013 $9.99N/A (N/A/73%)20,000 .. 50,0000%00:00 (00:00)
253 Rise of Venice Sep 27, 2013 $19.99N/A (N/A/66%)100,000 .. 200,0000%00:00 (00:00)
254 Civilization IV: Warlords Apr 6, 2007 $4.99N/A (N/A/84%)1,000,000 .. 2,000,0000%00:00 (00:00)
255 Knight Adventure Oct 15, 2015 $0.99N/A (N/A)20,000 .. 50,0000%00:00 (00:00)
256 Nuclear Dawn Sep 26, 2011 $1.79N/A (N/A/71%)200,000 .. 500,0000%00:00 (00:00)
257 Militia Dec 2, 2015 $5.99N/A (N/A)20,000 .. 50,0000%00:00 (00:00)
258 Ghost Master Dec 21, 2006 $0.49N/A (N/A/81%)100,000 .. 200,0000%00:00 (00:00)
259 Angry Video Game Nerd II: ASSimilation Mar 29, 2016 $9.99N/A (N/A)20,000 .. 50,0000%00:00 (00:00)
260 Tom Clancy's EndWar Feb 25, 2009 $9.99N/A (N/A/68%)100,000 .. 200,0000%00:00 (00:00)
261 1775: Rebellion Sep 29, 2016 $24.99N/A (N/A)20,000 .. 50,0000%00:00 (00:00)
262 Making History: The Calm & the Storm Mar 13, 2007 $4.99N/A (N/A/70%)50,000 .. 100,0000%00:00 (00:00)
263 Galaxy Admirals Jan 17, 2017 $1.99N/A (N/A)100,000 .. 200,0000%00:00 (00:00)
264 Earth Defense Force: Insect Armageddon Dec 14, 2011 $9.99N/A (N/A/69%)50,000 .. 100,0000%00:00 (00:00)
265 Neon Chrome Apr 28, 2016 $14.99N/A (N/A/74%)200,000 .. 500,0000%00:00 (00:00)
266 Lost Planet: Extreme Condition Jun 26, 2007 $14.99N/A (N/A/66%)200,000 .. 500,0000%00:00 (00:00)
267 Junk Jack Nov 30, 2016 $14.99N/A (N/A)0 .. 20,0000%00:00 (00:00)
268 Dangerous Waters Feb 7, 2006 $2.99N/A (N/A/82%)50,000 .. 100,0000%00:00 (00:00)
269 The Seven Years War (1756-1763) Oct 30, 2015 $19.99N/A (N/A)20,000 .. 50,0000%00:00 (00:00)
270 Warhammer 40,000: Dawn of War – Winter Assault Jan 1, 2006 $12.99N/A (N/A)200,000 .. 500,0000%00:00 (00:00)
271 Corgi Warlock Dec 3, 2015 $1.99N/A (N/A)20,000 .. 50,0000%00:00 (00:00)
272 Fleet Command May 15, 1999 $1.99N/A (N/A)20,000 .. 50,0000%00:00 (00:00)
273 Reverse Crawl Sep 24, 2015 $5.99N/A (N/A)50,000 .. 100,0000%00:00 (00:00)
274 Supreme Commander Sep 28, 2011 $12.99N/A (N/A/86%)500,000 .. 1,000,0000%00:00 (00:00)
275 Goblin Defenders: Steel‘n’ Wood Aug 21, 2013 $2.99N/A (N/A)0 .. 20,0000%00:00 (00:00)
276 Advent Rising Sep 14, 2006 $9.99N/A (N/A/70%)50,000 .. 100,0000%00:00 (00:00)
277 The Juicer Sep 6, 2012 $0.99N/A (N/A)50,000 .. 100,0000%00:00 (00:00)
278 BC Kings Jun 16, 2009 $4.99N/A (N/A)20,000 .. 50,0000%00:00 (00:00)
279 Gurgamoth Feb 16, 2016 $9.99N/A (N/A)0 .. 20,0000%00:00 (00:00)
280 BloodRayne (Legacy) Sep 14, 2006 N/AN/A (N/A/65%)50,000 .. 100,0000%00:00 (00:00)
281 Life in Bunker Feb 25, 2016 $15.99N/A (N/A)0 .. 20,0000%00:00 (00:00)
282 Port Royale 2 Jun 16, 2009 $4.99N/A (N/A/75%)50,000 .. 100,0000%00:00 (00:00)
283 Vector Strain Dec 9, 2015 $4.99N/A (N/A)20,000 .. 50,0000%00:00 (00:00)
284 CivCity: Rome Apr 6, 2007 $9.99N/A (N/A/67%)50,000 .. 100,0000%00:00 (00:00)
285 The Political Machine 2016 Feb 4, 2016 N/AN/A (N/A)50,000 .. 100,0000%00:00 (00:00)
286 Heroes of Might & Magic V: Hammers of Fate Oct 10, 2008 $9.99N/A (N/A/66%)50,000 .. 100,0000%00:00 (00:00)
287 Kill The Plumber Dec 31, 2015 $4.99N/A (N/A)0 .. 20,0000%00:00 (00:00)
288 Wickland Nov 14, 2014 $0.99N/A (N/A)50,000 .. 100,0000%00:00 (00:00)
289 Robotex Nov 18, 2014 $4.99N/A (N/A)200,000 .. 500,0000%00:00 (00:00)
290 War, the Game Jan 12, 2015 $6.99N/A (N/A/65%)20,000 .. 50,0000%00:00 (00:00)
291 Executive Assault Jul 17, 2015 $12.99N/A (N/A)0 .. 20,0000%00:00 (00:00)
292 Kalimba Apr 22, 2015 $9.99N/A (N/A/81%)50,000 .. 100,00025%00:46 (00:15)
293 Survivor Squad: Gauntlets Nov 16, 2015 $4.99N/A (N/A)20,000 .. 50,0000%00:00 (00:00)
294 Desert Ashes Nov 10, 2014 $4.99N/A (N/A)20,000 .. 50,0000%00:00 (00:00)
295 Prophour23 Oct 22, 2014 $9.99N/A (N/A)0 .. 20,0000%00:00 (00:00)
296 The Hive Aug 25, 2016 $7.49N/A (N/A)0 .. 20,0000%00:00 (00:00)
297 Platypus II Mar 17, 2007 $3.99N/A (N/A)200,000 .. 500,0000%00:00 (00:00)
298 FEIST Jul 23, 2015 $9.99N/A (N/A/65%)20,000 .. 50,0000%00:00 (00:00)
299 Gold Rush! Anniversary Nov 7, 2014 $5.99N/A (N/A)50,000 .. 100,0000%00:00 (00:00)
300 Near Death Aug 2, 2016 $7.99N/A (N/A/70%)20,000 .. 50,0000%00:00 (00:00)
301 Deadlings: Rotten Edition Nov 11, 2014 $3.99N/A (N/A)50,000 .. 100,0000%00:00 (00:00)
302 TRON 2.0 Aug 22, 2003 $9.99N/A (N/A/84%)100,000 .. 200,0000%00:00 (00:00)
303 Toren May 11, 2015 $9.99N/A (N/A/57%)100,000 .. 200,0000%00:00 (00:00)
304 Frozen Synapse Prime Nov 14, 2014 N/AN/A (N/A/83%)50,000 .. 100,0000%00:00 (00:00)

Tags over time:

Access restricted.

This feature is only available to users with special access rights. Sorry.

If you want to proceed, you need to register or log in first and then back Steam Spy on Patreon. Look for Indie or Pro pledge.

Don't forget to use the same email as on Steam Spy!

If you've recently backed Steam Spy on Patreon, please note, that it might take around 15 minutes for your access rights to sync. In most cases you'll need to re-login on Steam Spy too.

Owners of this game also own:

Access restricted.

This feature is only available to users with special access rights. Sorry.

If you want to proceed, you need to register or log in first and then back Steam Spy on Patreon. Look for Indie or Pro pledge.

Don't forget to use the same email as on Steam Spy!

If you've recently backed Steam Spy on Patreon, please note, that it might take around 15 minutes for your access rights to sync. In most cases you'll need to re-login on Steam Spy too.

Playtime distribution:

Access restricted.

This feature is only available to users with special access rights. Sorry.

If you want to proceed, you need to register or log in first and then back Steam Spy on Patreon. Look for Indie or Pro pledge.

Don't forget to use the same email as on Steam Spy!

If you've recently backed Steam Spy on Patreon, please note, that it might take around 15 minutes for your access rights to sync. In most cases you'll need to re-login on Steam Spy too.

Playtime (2 weeks):

Access restricted.

This feature is only available to users with special access rights. Sorry.

If you want to proceed, you need to register or log in first and then back Steam Spy on Patreon. Look for Indie or Pro pledge.

Don't forget to use the same email as on Steam Spy!

If you've recently backed Steam Spy on Patreon, please note, that it might take around 15 minutes for your access rights to sync. In most cases you'll need to re-login on Steam Spy too.

User reviews:

Login required.

Please register or log in to see this information.